Starlink 30074

operational
NORAD ID: 57508 Int'l Des: 2023-113 Owner: SPXS Country: US Constellation: starlink
LEOCIRCULAR

About Starlink 30074

Description loading...

Live Position

Loading 3D Globe...

Upcoming Passes

Altitude History

Altitude vs Time

uPlot chart will show altitude changes over time

Two-Line Element Set

1 57508U 23113P 25260.98813348 .00001448 00000-0 12223-3 0 9994
2 57508 43.0024 235.5503 0001017 282.3304 77.7424 15.02531460117472
Epoch: Sep 17, 2025 • Age: 14 hours

Current Status

Altitude 567.3 km
Velocity 7.58 km/s
Sub-Earth Point -31.49°S, 106.96°W
Launch Date Aug 7, 2023
Age 2.1 years
Type internet

Technical Details

Classification Payload
Mass 730.00 kg
Dry Mass 700.00 kg
Total Mass 730.00 kg
Length 0.30 m
Diameter 4.10 m
Span 29.00 m
Shape Box + pan
Manufacturer SPXS
Bus Type Starlink V2M
Phase Status In Orbit
Owner/State SPXS/US

Large Constellations

Loading constellations...